Location: Brienzwiler
(46.7508°N, 8.1014°E)
Time: 16:58:24
(UTC+00:00)

Gblst 52 Del rocket - Pass Details

Date: 05 July 2020
Orbit: 805 x 1366 km, 51.5° (Epoch: 10 August)

Event Time Altitude Azimuth Distance (km) Brightness Sun altitude
Rises 21:06:45 0° 294° (WNW) 3,349 8.4 -13.2°
Reaches altitude 10° 21:09:07 10° 295° (WNW) 2,446 7.6 -13.4°
Maximum altitude 21:14:49 83° 23° (NNE) 902 4.4 -13.9°
Enters shadow 21:20:34 13° 112° (ESE) 2,490 6.2 -14.5°
